M I D A S
Marine Information and Data Acquisition System
Tripno 2280 of the Zeeleeuw from 2012-03-26 06:45:06 to 2012-03-26 15:07:12
Back to CruiseResearch ActivitiesStationsMapUnderway DataData graphs

EquipmentUnitsComments
TimeDGPSUTC
LatitudeDGPSDM.mWGS84
LongitudeDGPSDM.mWGS84
SpeedMeteo Stationm/sRelative wind speed
DirectionMeteo StationdegRelative wind direction
TemperatureMeteo Stationdeg CelciusAir temperature
PressureMeteo StationPaAtmospheric pressure
HumidityMeteo Station%Relative humidity
Missing or incorrect values are displayed as -999
Metereological data collected by the RV Zeeleeuw from 2012-03-26 06:21:21 to 2012-03-26 15:28:32
                                                                                    Next 1000 lines
Time Latitude Longitude Speed Direction Temperature Pressure Humidity
2012-03-26 06:21:31 51°13.638 2°56.021 -999 283 7.3 103500 41
2012-03-26 06:21:36 51°13.638 2°56.021 -999 23 7.3 103500 41
2012-03-26 06:21:41 51°13.638 2°56.021 -999 283 7.3 103500 41
2012-03-26 06:21:46 51°13.638 2°56.021 -999 23 7.3 103500 41
2012-03-26 06:21:51 51°13.638 2°56.021 -999 283 7.3 103500 41
2012-03-26 06:21:56 51°13.638 2°56.021 -999 306 7.3 103500 41
2012-03-26 06:22:01 51°13.638 2°56.021 -999 306 7.3 103500 41
2012-03-26 06:22:06 51°13.638 2°56.021 -999 306 7.3 103500 41
2012-03-26 06:22:11 51°13.638 2°56.021 -999 306 7.3 103500 41
2012-03-26 06:22:16 51°13.638 2°56.021 -999 306 -999 -999 -999
2012-03-26 06:22:21 51°13.638 2°56.021 -999 306 -999 -999 -999
2012-03-26 06:22:26 51°13.638 2°56.021 -999 -999 -999 -999 -999
2012-03-26 06:22:31 51°13.638 2°56.021 -999 17 -999 -999 -999
2012-03-26 06:22:36 51°13.638 2°56.021 1.4 6 -999 -999 -999
2012-03-26 06:22:41 51°13.638 2°56.021 1 285 -999 -999 -999
2012-03-26 06:22:46 51°13.638 2°56.021 0.9 317 -999 -999 -999
2012-03-26 06:22:51 51°13.638 2°56.021 0.2 278 -999 -999 -999
2012-03-26 06:22:56 51°13.638 2°56.021 0.1 316 -999 -999 -999
2012-03-26 06:23:01 51°13.638 2°56.021 0.1 283 7.4 -999 27
2012-03-26 06:23:06 51°13.637 2°56.021 0.5 37 7.4 -999 27
2012-03-26 06:23:11 51°13.638 2°56.021 2 282 7.3 -999 41
2012-03-26 06:23:15 51°13.638 2°56.021 1.3 31 7.3 -999 41
2012-03-26 06:23:21 51°13.638 2°56.021 1.1 282 7.3 103500 40
2012-03-26 06:23:26 51°13.638 2°56.021 1.1 31 7.3 103500 40
2012-03-26 06:23:31 51°13.637 2°56.021 0.1 283 7.3 103500 42
2012-03-26 06:23:35 51°13.637 2°56.021 0.1 34 7.3 103500 42
2012-03-26 06:23:41 51°13.637 2°56.02 -999 283 7.3 103500 41
2012-03-26 06:23:46 51°13.637 2°56.02 -999 34 7.3 103500 41
2012-03-26 06:23:51 51°13.637 2°56.02 -999 283 7.3 103500 41
2012-03-26 06:23:55 51°13.637 2°56.02 -999 34 7.3 103500 41
2012-03-26 06:24:01 51°13.637 2°56.02 -999 283 7.3 103510 41
2012-03-26 06:24:06 51°13.636 2°56.02 -999 34 7.3 103510 41
2012-03-26 06:24:11 51°13.636 2°56.02 -999 283 7.3 103500 41
2012-03-26 06:24:15 51°13.636 2°56.02 -999 242 7.3 103500 41
2012-03-26 06:24:21 51°13.636 2°56.02 -999 25 7.3 103510 41
2012-03-26 06:24:26 51°13.636 2°56.02 -999 34 7.3 103510 41
2012-03-26 06:24:31 51°13.636 2°56.02 0.1 284 7.3 103510 41
2012-03-26 06:24:36 51°13.636 2°56.02 0.1 39 7.3 103510 41
2012-03-26 06:24:41 51°13.636 2°56.019 0.1 283 7.3 103510 41
2012-03-26 06:24:46 51°13.636 2°56.02 0.1 34 7.3 103510 41
2012-03-26 06:24:51 51°13.637 2°56.02 -999 283 7.3 103510 41
2012-03-26 06:24:56 51°13.637 2°56.02 -999 242 7.3 103510 41
2012-03-26 06:25:01 51°13.636 2°56.02 -999 283 7.3 103510 41
2012-03-26 06:25:06 51°13.636 2°56.02 -999 244 7.3 103510 41
2012-03-26 06:25:11 51°13.636 2°56.02 0.9 287 7.3 103510 41
2012-03-26 06:25:16 51°13.636 2°56.02 0.5 245 7.3 103510 41
2012-03-26 06:25:21 51°13.636 2°56.02 0.5 26 7.3 103510 41
2012-03-26 06:25:26 51°13.636 2°56.02 0.3 239 7.3 103510 41
2012-03-26 06:25:31 51°13.637 2°56.021 0.1 283 7.3 103510 41
2012-03-26 06:25:35 51°13.636 2°56.021 0.1 244 7.3 103510 41
2012-03-26 06:25:41 51°13.636 2°56.02 -999 283 7.3 103510 41
2012-03-26 06:25:46 51°13.636 2°56.02 -999 34 7.3 103510 41
2012-03-26 06:25:51 51°13.636 2°56.02 -999 283 7.3 103510 41
2012-03-26 06:25:55 51°13.636 2°56.02 0.1 250 7.3 103510 41
2012-03-26 06:26:01 51°13.636 2°56.02 0.1 283 7.3 103510 40
2012-03-26 06:26:06 51°13.636 2°56.02 0.1 252 7.3 103510 40
2012-03-26 06:26:11 51°13.636 2°56.02 -999 283 7.3 103510 41
2012-03-26 06:26:15 51°13.636 2°56.02 -999 251 7.3 103510 41
2012-03-26 06:26:21 51°13.636 2°56.021 -999 251 7.3 103510 41
2012-03-26 06:26:26 51°13.636 2°56.02 -999 253 7.3 103510 41
2012-03-26 06:26:31 51°13.636 2°56.02 -999 283 7.3 103510 41
2012-03-26 06:26:35 51°13.636 2°56.02 1.7 248 7.3 103510 41
2012-03-26 06:26:41 51°13.636 2°56.02 0.4 283 7.3 103510 41
2012-03-26 06:26:46 51°13.636 2°56.02 0.3 241 7.3 103510 41
2012-03-26 06:26:51 51°13.636 2°56.02 0.1 283 7.3 103510 41
2012-03-26 06:26:56 51°13.636 2°56.02 0.1 240 7.3 103510 41
2012-03-26 06:27:01 51°13.636 2°56.02 -999 283 7.3 103520 41
2012-03-26 06:27:06 51°13.636 2°56.02 -999 238 7.3 103520 41
2012-03-26 06:27:11 51°13.636 2°56.02 -999 283 7.3 103520 41
2012-03-26 06:27:16 51°13.636 2°56.02 0.1 245 7.3 103520 41
2012-03-26 06:27:21 51°13.636 2°56.02 0.5 23 7.3 103510 41
2012-03-26 06:27:26 51°13.636 2°56.02 0.1 243 7.3 103510 41
2012-03-26 06:27:31 51°13.636 2°56.02 -999 283 7.3 103520 41
2012-03-26 06:27:36 51°13.636 2°56.02 -999 242 7.3 103520 41
2012-03-26 06:27:41 51°13.636 2°56.02 1.5 278 7.3 103510 41
2012-03-26 06:27:46 51°13.636 2°56.02 0.6 249 7.3 103510 41
2012-03-26 06:27:51 51°13.636 2°56.019 1.2 288 7.3 103520 41
2012-03-26 06:27:55 51°13.636 2°56.019 0.7 31 7.3 103520 41
2012-03-26 06:28:01 51°13.636 2°56.02 1 280 7.3 103520 41
2012-03-26 06:28:06 51°13.636 2°56.02 0.7 240 7.3 103520 41
2012-03-26 06:28:11 51°13.636 2°56.02 0.6 287 7.3 103520 40
2012-03-26 06:28:15 51°13.636 2°56.02 0.1 242 7.3 103520 40
2012-03-26 06:28:21 51°13.636 2°56.02 0.1 279 7.3 103520 41
2012-03-26 06:28:26 51°13.636 2°56.02 0.5 244 7.3 103520 41
2012-03-26 06:28:31 51°13.636 2°56.02 0.1 283 7.3 103520 41
2012-03-26 06:28:35 51°13.636 2°56.02 0.1 249 7.3 103520 41
2012-03-26 06:28:41 51°13.636 2°56.02 0.1 283 7.3 103520 40
2012-03-26 06:28:46 51°13.636 2°56.02 0.1 243 7.3 103520 40
2012-03-26 06:28:51 51°13.636 2°56.02 -999 283 7.3 103520 41
2012-03-26 06:28:56 51°13.636 2°56.02 -999 246 7.3 103520 41
2012-03-26 06:29:01 51°13.636 2°56.02 -999 283 7.3 103520 41
2012-03-26 06:29:06 51°13.636 2°56.02 0.1 246 7.3 103520 41
2012-03-26 06:29:11 51°13.636 2°56.02 0.5 286 7.3 103520 41
2012-03-26 06:29:15 51°13.636 2°56.02 0.2 244 7.3 103520 41
2012-03-26 06:29:21 51°13.636 2°56.02 0.1 254 7.3 103520 42
2012-03-26 06:29:26 51°13.636 2°56.02 0.1 242 7.3 103520 42
2012-03-26 06:29:31 51°13.636 2°56.02 0.1 287 7.3 103520 41
2012-03-26 06:29:36 51°13.636 2°56.02 0.7 243 7.3 103520 41
2012-03-26 06:29:41 51°13.636 2°56.02 0.1 288 7.3 103520 41
2012-03-26 06:29:46 51°13.636 2°56.02 0.1 32 7.3 103520 41
2012-03-26 06:29:51 51°13.636 2°56.02 0.1 283 7.3 103520 41
2012-03-26 06:29:56 51°13.635 2°56.02 -999 34 7.3 103520 41
2012-03-26 06:30:01 51°13.635 2°56.02 -999 283 7.3 103520 41
2012-03-26 06:30:06 51°13.635 2°56.02 -999 237 7.3 103520 41
2012-03-26 06:30:11 51°13.635 2°56.02 -999 283 7.3 103520 40
2012-03-26 06:30:15 51°13.635 2°56.02 -999 246 7.3 103520 40
2012-03-26 06:30:21 51°13.635 2°56.02 0.1 283 7.3 103520 41
2012-03-26 06:30:26 51°13.635 2°56.02 0.1 238 7.3 103520 41
2012-03-26 06:30:31 51°13.636 2°56.019 0.7 284 7.3 103520 41
2012-03-26 06:30:35 51°13.636 2°56.019 0.3 239 7.3 103520 41
2012-03-26 06:30:41 51°13.636 2°56.019 0.1 283 7.3 103520 40
2012-03-26 06:30:46 51°13.637 2°56.019 0.1 247 7.3 103520 40
2012-03-26 06:30:51 51°13.637 2°56.019 -999 283 7.3 103520 40
2012-03-26 06:30:55 51°13.637 2°56.019 -999 241 7.3 103520 40
2012-03-26 06:31:01 51°13.636 2°56.019 -999 278 7.3 103520 41
2012-03-26 06:31:06 51°13.636 2°56.019 0.6 33 7.3 103520 41
2012-03-26 06:31:11 51°13.636 2°56.019 0.1 283 7.3 103520 41
2012-03-26 06:31:16 51°13.636 2°56.019 0.1 34 7.3 103520 41
2012-03-26 06:31:21 51°13.636 2°56.019 0.1 28 7.3 103520 40
2012-03-26 06:31:26 51°13.636 2°56.019 1.6 237 7.3 103520 40
2012-03-26 06:31:31 51°13.636 2°56.019 0.3 282 7.3 103520 40
2012-03-26 06:31:36 51°13.636 2°56.019 0.1 29 7.3 103520 40
2012-03-26 06:31:41 51°13.636 2°56.019 0.6 284 7.3 103520 40
2012-03-26 06:31:46 51°13.636 2°56.019 0.2 35 7.3 103520 40
2012-03-26 06:31:51 51°13.636 2°56.019 1.1 282 7.3 103520 40
2012-03-26 06:31:56 51°13.636 2°56.019 1 242 7.3 103520 40
2012-03-26 06:32:01 51°13.636 2°56.019 1.8 284 7.3 103520 40
2012-03-26 06:32:06 51°13.636 2°56.019 1.1 37 7.3 103520 40
2012-03-26 06:32:11 51°13.636 2°56.019 1.3 283 7.3 103520 41
2012-03-26 06:32:16 51°13.636 2°56.019 0.5 34 7.3 103520 41
2012-03-26 06:32:21 51°13.636 2°56.019 0.7 287 7.3 103520 40
2012-03-26 06:32:26 51°13.636 2°56.019 0.2 31 7.3 103520 40
2012-03-26 06:32:31 51°13.636 2°56.019 0.1 283 7.3 103520 40
2012-03-26 06:32:35 51°13.636 2°56.019 -999 329 7.3 103520 40
2012-03-26 06:32:41 51°13.636 2°56.019 -999 283 7.3 103520 40
2012-03-26 06:32:46 51°13.636 2°56.019 -999 324 7.3 103520 40
2012-03-26 06:32:51 51°13.636 2°56.019 -999 283 7.3 103520 40
2012-03-26 06:32:55 51°13.636 2°56.019 -999 34 7.3 103520 40
2012-03-26 06:33:01 51°13.636 2°56.019 -999 283 7.3 103530 40
2012-03-26 06:33:06 51°13.636 2°56.019 -999 34 7.3 103530 40
2012-03-26 06:33:11 51°13.636 2°56.019 -999 283 7.3 103530 40
2012-03-26 06:33:16 51°13.636 2°56.019 -999 242 7.3 103530 40
2012-03-26 06:33:21 51°13.636 2°56.019 -999 23 7.3 103530 40
2012-03-26 06:33:26 51°13.636 2°56.019 0.9 236 7.3 103530 40
2012-03-26 06:33:31 51°13.636 2°56.019 0.5 284 7.3 103530 40
2012-03-26 06:33:36 51°13.636 2°56.019 0.1 327 7.3 103530 40
2012-03-26 06:33:41 51°13.636 2°56.019 0.3 288 7.3 103530 40
2012-03-26 06:33:46 51°13.636 2°56.019 0.2 323 7.3 103530 40
2012-03-26 06:33:51 51°13.636 2°56.019 0.1 283 7.3 103530 40
2012-03-26 06:33:56 51°13.636 2°56.019 0.1 34 7.3 103530 40
2012-03-26 06:34:01 51°13.636 2°56.019 -999 278 7.3 103530 40
2012-03-26 06:34:06 51°13.636 2°56.019 0.4 33 7.3 103530 40
2012-03-26 06:34:11 51°13.636 2°56.019 0.1 283 7.3 103530 40
2012-03-26 06:34:16 51°13.636 2°56.019 0.1 240 7.3 103530 40
2012-03-26 06:34:21 51°13.636 2°56.019 0.1 23 7.3 103530 40
2012-03-26 06:34:26 51°13.636 2°56.019 0.1 251 7.3 103530 40
2012-03-26 06:34:31 51°13.636 2°56.019 0.1 283 7.3 103530 40
2012-03-26 06:34:36 51°13.635 2°56.019 0.1 255 7.3 103530 40
2012-03-26 06:34:41 51°13.635 2°56.019 0.1 283 7.3 103530 40
2012-03-26 06:34:46 51°13.635 2°56.019 0.1 29 7.3 103530 40
2012-03-26 06:34:51 51°13.635 2°56.019 0.4 278 7.3 103530 40
2012-03-26 06:34:55 51°13.635 2°56.019 0.1 36 7.3 103530 40
2012-03-26 06:35:01 51°13.636 2°56.019 0.1 278 7.3 103530 40
2012-03-26 06:35:06 51°13.635 2°56.019 0.5 241 7.3 103530 40
2012-03-26 06:35:11 51°13.635 2°56.019 0.2 283 7.3 103530 41
2012-03-26 06:35:15 51°13.635 2°56.019 0.1 34 7.3 103530 41
2012-03-26 06:35:21 51°13.636 2°56.019 0.1 23 7.3 103530 40
2012-03-26 06:35:26 51°13.635 2°56.019 -999 34 7.3 103530 40
2012-03-26 06:35:31 51°13.636 2°56.019 -999 283 7.3 103530 40
2012-03-26 06:35:35 51°13.636 2°56.019 -999 241 7.3 103530 40
2012-03-26 06:35:41 51°13.635 2°56.019 -999 283 7.3 103530 40
2012-03-26 06:35:46 51°13.635 2°56.019 -999 236 7.3 103530 40
2012-03-26 06:35:51 51°13.636 2°56.019 -999 283 7.3 103530 40
2012-03-26 06:35:56 51°13.635 2°56.019 -999 239 7.3 103530 40
2012-03-26 06:36:01 51°13.635 2°56.019 -999 283 7.3 103530 40
2012-03-26 06:36:06 51°13.636 2°56.019 -999 239 7.3 103530 40
2012-03-26 06:36:11 51°13.635 2°56.019 -999 283 7.3 103530 40
2012-03-26 06:36:16 51°13.635 2°56.019 -999 239 7.3 103530 40
2012-03-26 06:36:21 51°13.635 2°56.019 -999 23 7.3 103530 40
2012-03-26 06:36:26 51°13.635 2°56.019 0.1 239 7.3 103530 40
2012-03-26 06:36:31 51°13.635 2°56.019 0.1 283 7.3 103530 40
2012-03-26 06:36:36 51°13.635 2°56.02 -999 250 7.3 103530 40
2012-03-26 06:36:41 51°13.635 2°56.02 -999 283 7.3 103530 40
2012-03-26 06:36:46 51°13.635 2°56.019 -999 34 7.3 103530 40
2012-03-26 06:36:51 51°13.635 2°56.02 -999 283 7.3 103530 40
2012-03-26 06:36:55 51°13.635 2°56.02 -999 315 7.3 103530 40
2012-03-26 06:37:01 51°13.635 2°56.02 0.1 283 7.3 103530 41
2012-03-26 06:37:06 51°13.635 2°56.02 1.6 32 7.3 103530 41
2012-03-26 06:37:11 51°13.634 2°56.021 1.3 284 7.3 103530 40
2012-03-26 06:37:15 51°13.634 2°56.021 0.4 34 7.3 103530 40
2012-03-26 06:37:21 51°13.634 2°56.021 0.5 285 7.3 103540 40
2012-03-26 06:37:26 51°13.633 2°56.021 0.5 241 7.3 103540 40
2012-03-26 06:37:31 51°13.633 2°56.021 0.2 283 7.3 103540 40
2012-03-26 06:37:35 51°13.633 2°56.021 0.1 242 7.3 103540 40
2012-03-26 06:37:41 51°13.634 2°56.021 0.4 287 7.3 103540 40
2012-03-26 06:37:46 51°13.634 2°56.021 0.2 239 7.3 103540 40
2012-03-26 06:37:51 51°13.634 2°56.021 0.1 283 7.3 103540 40
2012-03-26 06:37:56 51°13.634 2°56.02 -999 236 7.3 103540 40
2012-03-26 06:38:01 51°13.634 2°56.02 -999 283 7.3 103540 40
2012-03-26 06:38:06 51°13.634 2°56.02 0.1 239 7.3 103540 40
2012-03-26 06:38:11 51°13.635 2°56.02 0.1 283 7.3 103540 40
2012-03-26 06:38:16 51°13.635 2°56.02 0.6 251 7.3 103540 40
2012-03-26 06:38:21 51°13.635 2°56.02 0.7 22 7.3 103540 40
2012-03-26 06:38:26 51°13.635 2°56.019 1 33 7.3 103540 40
2012-03-26 06:38:31 51°13.635 2°56.02 0.2 283 7.3 103540 40
2012-03-26 06:38:36 51°13.635 2°56.02 0.1 241 7.3 103540 40
2012-03-26 06:38:41 51°13.635 2°56.02 0.1 283 7.3 103540 40
2012-03-26 06:38:46 51°13.635 2°56.019 -999 247 7.3 103540 40
2012-03-26 06:38:51 51°13.635 2°56.02 -999 283 7.3 103540 40
2012-03-26 06:38:56 51°13.635 2°56.02 1.3 32 7.3 103540 40
2012-03-26 06:39:01 51°13.635 2°56.02 1.9 280 7.3 103540 40
2012-03-26 06:39:06 51°13.635 2°56.02 1.8 32 7.3 103540 40
2012-03-26 06:39:11 51°13.634 2°56.019 1.9 286 7.3 103540 40
2012-03-26 06:39:15 51°13.634 2°56.02 1.5 319 7.3 103540 40
2012-03-26 06:39:21 51°13.634 2°56.019 1.3 282 7.3 103540 39
2012-03-26 06:39:26 51°13.634 2°56.02 0.9 236 7.3 103540 39
2012-03-26 06:39:31 51°13.634 2°56.02 0.3 283 7.3 103540 40
2012-03-26 06:39:35 51°13.634 2°56.019 0.1 238 7.3 103540 40
2012-03-26 06:39:41 51°13.634 2°56.019 0.1 287 7.3 103540 40
2012-03-26 06:39:46 51°13.634 2°56.019 0.1 36 7.3 103540 40
2012-03-26 06:39:51 51°13.634 2°56.019 0.1 283 7.3 103550 39
2012-03-26 06:39:55 51°13.634 2°56.019 0.1 37 7.3 103550 39
2012-03-26 06:40:00 51°13.634 2°56.019 -999 283 7.3 103540 40
2012-03-26 06:40:06 51°13.634 2°56.019 0.1 29 7.3 103540 40
2012-03-26 06:40:11 51°13.633 2°56.019 0.7 282 7.3 103540 40
2012-03-26 06:40:16 51°13.633 2°56.019 1.6 324 7.3 103540 40
2012-03-26 06:40:21 51°13.633 2°56.019 0.8 325 7.3 103550 40
2012-03-26 06:40:26 51°13.633 2°56.019 1.3 31 7.3 103550 40
2012-03-26 06:40:31 51°13.633 2°56.019 0.9 279 7.3 103540 40
2012-03-26 06:40:36 51°13.633 2°56.019 0.5 318 7.3 103540 40
2012-03-26 06:40:41 51°13.633 2°56.019 1.1 287 7.3 103550 40
2012-03-26 06:40:46 51°13.633 2°56.018 1.1 329 7.3 103550 40
2012-03-26 06:40:51 51°13.633 2°56.016 1.2 280 7.3 103550 40
2012-03-26 06:40:55 51°13.633 2°56.014 0.4 319 7.3 103550 40
2012-03-26 06:41:01 51°13.634 2°56.01 0.4 278 7.3 103540 40
2012-03-26 06:41:06 51°13.635 2°56.006 0.4 38 7.3 103540 40
2012-03-26 06:41:11 51°13.635 2°56.001 0.3 283 7.3 103550 41
2012-03-26 06:41:15 51°13.636 2°55.996 0.1 34 7.3 103550 41
2012-03-26 06:41:21 51°13.638 2°55.988 0.1 77 7.3 103550 40
2012-03-26 06:41:26 51°13.64 2°55.981 0.7 261 7.3 103550 40
2012-03-26 06:41:31 51°13.641 2°55.973 1.2 284 7.3 103540 40
2012-03-26 06:41:35 51°13.643 2°55.967 0.7 259 7.3 103540 40
2012-03-26 06:41:41 51°13.645 2°55.957 0.2 283 7.3 103550 40
2012-03-26 06:41:46 51°13.647 2°55.948 0.1 264 7.3 103550 40
2012-03-26 06:41:51 51°13.65 2°55.94 0.9 283 7.3 103550 40
2012-03-26 06:41:55 51°13.651 2°55.932 1.1 42 7.3 103550 40
2012-03-26 06:42:01 51°13.654 2°55.921 1.6 78 7.3 103550 39
2012-03-26 06:42:06 51°13.657 2°55.912 0.9 38 7.3 103550 39
2012-03-26 06:42:11 51°13.66 2°55.902 1.2 75 7.3 103550 40
2012-03-26 06:42:16 51°13.663 2°55.893 1.5 34 7.3 103550 40
2012-03-26 06:42:21 51°13.666 2°55.883 0.9 22 7.3 103550 40
2012-03-26 06:42:26 51°13.67 2°55.874 1 264 7.3 103550 40
2012-03-26 06:42:31 51°13.673 2°55.864 1.4 78 7.3 103550 40
2012-03-26 06:42:36 51°13.677 2°55.854 1.6 31 7.3 103550 40
2012-03-26 06:42:41 51°13.681 2°55.844 1.1 283 7.3 103550 41
2012-03-26 06:42:46 51°13.685 2°55.835 1.4 39 7.3 103550 41
2012-03-26 06:42:51 51°13.689 2°55.826 1.8 77 7.3 103550 40
2012-03-26 06:42:56 51°13.694 2°55.816 2.1 40 7.3 103550 40
2012-03-26 06:43:01 51°13.699 2°55.807 2.4 72 7.3 103550 41
2012-03-26 06:43:06 51°13.704 2°55.798 2 31 7.3 103550 41
2012-03-26 06:43:11 51°13.709 2°55.79 1.5 86 7.3 103550 41
2012-03-26 06:43:16 51°13.714 2°55.781 1.5 34 7.3 103550 41
2012-03-26 06:43:21 51°13.719 2°55.773 2.2 27 7.3 103550 41
2012-03-26 06:43:26 51°13.725 2°55.764 2.3 33 7.3 103550 41
2012-03-26 06:43:31 51°13.73 2°55.756 2.2 76 7.3 103550 40
2012-03-26 06:43:35 51°13.734 2°55.749 2.4 33 7.3 103550 40
2012-03-26 06:43:41 51°13.741 2°55.739 1.9 82 7.3 103550 40
2012-03-26 06:43:46 51°13.746 2°55.731 2.5 33 7.3 103550 40
2012-03-26 06:43:51 51°13.752 2°55.723 2.4 76 7.3 103550 41
2012-03-26 06:43:55 51°13.756 2°55.716 2.2 37 7.3 103550 41
2012-03-26 06:44:01 51°13.762 2°55.707 2.3 80 7.3 103550 41
2012-03-26 06:44:06 51°13.767 2°55.699 2.7 30 7.3 103550 41
2012-03-26 06:44:11 51°13.773 2°55.691 3.1 74 7.2 103550 40
2012-03-26 06:44:16 51°13.778 2°55.684 2.5 31 7.2 103550 40
2012-03-26 06:44:21 51°13.784 2°55.677 2 21 7.2 103550 41
2012-03-26 06:44:26 51°13.789 2°55.67 2.8 33 7.2 103550 41
2012-03-26 06:44:31 51°13.795 2°55.664 2.1 74 7.2 103560 40
2012-03-26 06:44:35 51°13.8 2°55.659 2.2 38 7.2 103560 40
2012-03-26 06:44:41 51°13.807 2°55.653 2.4 82 7.2 103550 40
2012-03-26 06:44:46 51°13.813 2°55.647 2.5 31 7.2 103550 40
2012-03-26 06:44:51 51°13.82 2°55.643 2.3 77 7.2 103550 40
2012-03-26 06:44:56 51°13.827 2°55.638 1.9 30 7.2 103550 40
2012-03-26 06:45:01 51°13.833 2°55.634 2.4 74 7.2 103550 42
2012-03-26 06:45:06 51°13.84 2°55.631 2.5 37 7.2 103550 42
2012-03-26 06:45:11 51°13.847 2°55.627 2.8 75 7.2 103550 41
2012-03-26 06:45:16 51°13.854 2°55.624 3.3 33 7.2 103550 41
2012-03-26 06:45:21 51°13.861 2°55.621 3.2 22 7.2 103550 41
2012-03-26 06:45:26 51°13.868 2°55.619 1.9 33 7.2 103550 41
2012-03-26 06:45:31 51°13.875 2°55.617 1.2 79 7.2 103560 41
2012-03-26 06:45:36 51°13.881 2°55.615 2.8 37 7.2 103560 41
2012-03-26 06:45:41 51°13.888 2°55.614 2 80 7.2 103560 41
2012-03-26 06:45:46 51°13.894 2°55.613 2.7 32 7.2 103560 41
2012-03-26 06:45:51 51°13.9 2°55.613 4.3 73 7.2 103560 41
2012-03-26 06:45:55 51°13.905 2°55.613 4.1 32 7.2 103550 41
2012-03-26 06:46:01 51°13.911 2°55.614 3.6 73 7.2 103550 41
2012-03-26 06:46:06 51°13.916 2°55.615 3.7 32 7.2 103560 41
2012-03-26 06:46:11 51°13.922 2°55.617 2.8 79 7.2 103560 41
2012-03-26 06:46:15 51°13.926 2°55.618 2.9 31 7.2 103560 41
2012-03-26 06:46:21 51°13.931 2°55.621 3.9 80 7.2 103560 41
2012-03-26 06:46:26 51°13.936 2°55.623 3.8 28 7.2 103560 41
2012-03-26 06:46:31 51°13.941 2°55.626 3.4 75 7.2 103560 41
2012-03-26 06:46:35 51°13.944 2°55.628 2.3 32 7.2 103560 41
2012-03-26 06:46:41 51°13.948 2°55.631 3.4 76 7.2 103560 41
2012-03-26 06:46:46 51°13.952 2°55.634 2.9 33 7.2 103560 42
2012-03-26 06:46:51 51°13.955 2°55.637 2.2 80 7.2 103560 42
2012-03-26 06:46:55 51°13.958 2°55.639 2.9 37 7.2 103560 42
2012-03-26 06:47:01 51°13.961 2°55.643 1.8 73 7.2 103560 42
2012-03-26 06:47:06 51°13.963 2°55.645 1.8 19 7.2 103560 41
2012-03-26 06:47:11 51°13.965 2°55.646 0.5 73 7.2 103560 41
2012-03-26 06:47:15 51°13.966 2°55.647 1 22 7.2 103560 40
2012-03-26 06:47:21 51°13.967 2°55.648 1.2 76 7.2 103560 40
2012-03-26 06:47:26 51°13.968 2°55.648 0.3 34 7.2 103560 41
2012-03-26 06:47:31 51°13.968 2°55.647 0.8 75 7.2 103560 41
2012-03-26 06:47:35 51°13.969 2°55.647 0.9 44 7.2 103560 41
2012-03-26 06:47:41 51°13.969 2°55.645 0.3 42 7.2 103560 41
2012-03-26 06:47:46 51°13.969 2°55.643 0.5 42 7.2 103560 41
2012-03-26 06:47:51 51°13.97 2°55.64 0.3 43 7.2 103560 41
2012-03-26 06:47:55 51°13.97 2°55.638 0.3 33 7.2 103560 42
2012-03-26 06:48:01 51°13.97 2°55.633 0.2 77 7.2 103560 42
2012-03-26 06:48:06 51°13.971 2°55.629 0.1 21 7.2 103560 42
2012-03-26 06:48:11 51°13.972 2°55.625 0.8 23 7.2 103560 42
2012-03-26 06:48:15 51°13.973 2°55.621 1 13 7.3 103560 42
2012-03-26 06:48:21 51°13.975 2°55.615 1.5 10 7.3 103560 42
2012-03-26 06:48:26 51°13.978 2°55.609 1 5 7.3 103560 41
2012-03-26 06:48:30 51°13.98 2°55.604 1.1 279 7.3 103560 41
2012-03-26 06:48:35 51°13.983 2°55.597 1.4 359 7.3 103560 41
2012-03-26 06:48:40 51°13.988 2°55.59 0.9 1 7.3 103560 41
2012-03-26 06:48:45 51°13.992 2°55.582 3.3 356 7.3 103560 41
2012-03-26 06:48:51 51°13.999 2°55.572 2.5 356 7.3 103560 41
2012-03-26 06:48:55 51°14.004 2°55.565 3.2 353 7.3 103560 42
2012-03-26 06:49:00 51°14.011 2°55.556 2.4 350 7.3 103560 42
2012-03-26 06:49:05 51°14.018 2°55.547 2.2 350 7.3 103560 41
2012-03-26 06:49:10 51°14.026 2°55.538 3.3 358 7.3 103560 41
2012-03-26 06:49:15 51°14.034 2°55.528 3.6 348 7.3 103560 41
2012-03-26 06:49:20 51°14.043 2°55.518 3.7 350 7.3 103560 41
2012-03-26 06:49:25 51°14.052 2°55.508 4.6 350 7.3 103560 41
2012-03-26 06:49:30 51°14.061 2°55.498 4.1 279 7.3 103560 41
2012-03-26 06:49:35 51°14.071 2°55.488 4.9 351 7.3 103560 42
2012-03-26 06:49:40 51°14.081 2°55.478 3.9 346 7.3 103560 42
2012-03-26 06:49:46 51°14.094 2°55.466 4.6 351 7.3 103560 42
2012-03-26 06:49:51 51°14.104 2°55.455 3.8 279 7.3 103560 42
2012-03-26 06:49:55 51°14.112 2°55.446 4.4 344 7.3 103560 41
2012-03-26 06:50:00 51°14.124 2°55.435 3.7 279 7.3 103560 41
2012-03-26 06:50:06 51°14.138 2°55.422 3.8 347 7.3 103560 42
2012-03-26 06:50:11 51°14.149 2°55.41 4.2 282 7.3 103560 42
2012-03-26 06:50:16 51°14.161 2°55.399 4.6 342 7.3 103560 42
2012-03-26 06:50:21 51°14.173 2°55.387 4.2 279 7.3 103560 42
2012-03-26 06:50:26 51°14.185 2°55.375 4.7 344 7.3 103560 42
2012-03-26 06:50:31 51°14.196 2°55.362 5 349 7.3 103560 42
2012-03-26 06:50:35 51°14.206 2°55.353 4.8 346 7.3 103560 41
2012-03-26 06:50:40 51°14.217 2°55.34 5.2 350 7.3 103560 41
2012-03-26 06:50:45 51°14.229 2°55.327 5.1 344 7.3 103560 42
2012-03-26 06:50:51 51°14.244 2°55.313 5.2 354 7.3 103560 42
2012-03-26 06:50:55 51°14.253 2°55.302 4.7 347 7.3 103560 41
2012-03-26 06:51:01 51°14.268 2°55.288 4.7 281 7.3 103560 41
2012-03-26 06:51:06 51°14.28 2°55.276 5.7 347 7.3 103550 42
2012-03-26 06:51:11 51°14.292 2°55.263 6 349 7.3 103550 42
2012-03-26 06:51:15 51°14.302 2°55.253 5.3 348 7.3 103560 42
2012-03-26 06:51:21 51°14.316 2°55.239 5.7 280 7.3 103560 42
2012-03-26 06:51:26 51°14.329 2°55.227 4.4 348 7.3 103560 42
2012-03-26 06:51:31 51°14.341 2°55.214 5.6 280 7.3 103560 42
2012-03-26 06:51:35 51°14.352 2°55.204 5.8 347 7.4 103560 43
2012-03-26 06:51:41 51°14.367 2°55.189 6.2 351 7.4 103560 43
2012-03-26 06:51:46 51°14.38 2°55.177 4.6 349 7.4 103560 44
2012-03-26 06:51:51 51°14.393 2°55.165 5.7 350 7.4 103560 44
2012-03-26 06:51:55 51°14.404 2°55.155 5.1 352 7.4 103560 44
2012-03-26 06:52:01 51°14.42 2°55.14 6.1 279 7.4 103560 44
2012-03-26 06:52:06 51°14.434 2°55.128 6.4 354 7.4 103560 43
2012-03-26 06:52:11 51°14.448 2°55.116 5.3 352 7.4 103560 43
2012-03-26 06:52:15 51°14.458 2°55.105 6.3 351 7.4 103560 44
2012-03-26 06:52:20 51°14.472 2°55.093 6.3 355 7.4 103560 44
2012-03-26 06:52:26 51°14.489 2°55.077 5.6 349 7.4 103550 44
2012-03-26 06:52:31 51°14.503 2°55.064 5.2 349 7.4 103550 44
2012-03-26 06:52:35 51°14.514 2°55.052 5.6 352 7.4 103550 43
2012-03-26 06:52:40 51°14.529 2°55.038 5.5 352 7.4 103550 43
2012-03-26 06:52:45 51°14.542 2°55.022 5.5 351 7.4 103550 43
2012-03-26 06:52:50 51°14.556 2°55.005 4.8 350 7.4 103550 43
2012-03-26 06:52:55 51°14.57 2°54.987 6 349 7.4 103550 44
2012-03-26 06:52:59 51°14.58 2°54.972 5.5 278 7.4 103550 44
2012-03-26 06:53:04 51°14.594 2°54.953 6.7 346 7.4 103550 44
2012-03-26 06:53:09 51°14.607 2°54.934 7.1 345 7.4 103550 44
2012-03-26 06:53:14 51°14.62 2°54.915 7.1 346 7.5 103550 44
2012-03-26 06:53:19 51°14.634 2°54.896 5.8 279 7.5 103550 44
2012-03-26 06:53:23 51°14.644 2°54.88 6.7 346 7.4 103550 44
2012-03-26 06:53:28 51°14.658 2°54.861 5.8 282 7.4 103550 44
2012-03-26 06:53:33 51°14.671 2°54.842 6.3 347 7.5 103560 44
2012-03-26 06:53:38 51°14.684 2°54.822 6.2 280 7.5 103560 44
2012-03-26 06:53:43 51°14.697 2°54.803 6.1 345 7.5 103550 45
2012-03-26 06:53:48 51°14.71 2°54.783 4.4 279 7.5 103550 45
2012-03-26 06:53:53 51°14.723 2°54.763 2.2 345 7.5 103550 46
2012-03-26 06:53:58 51°14.735 2°54.743 2.4 282 7.5 103550 46
2012-03-26 06:54:03 51°14.748 2°54.723 2.4 349 7.6 103560 45
2012-03-26 06:54:07 51°14.759 2°54.708 2.3 349 7.6 103560 45
2012-03-26 06:54:12 51°14.772 2°54.688 2.4 348 7.6 103550 46
2012-03-26 06:54:17 51°14.785 2°54.67 2.3 281 7.6 103550 46
2012-03-26 06:54:22 51°14.799 2°54.651 2.1 350 7.6 103550 47
2012-03-26 06:54:27 51°14.812 2°54.632 2.7 349 7.6 103550 47
2012-03-26 06:54:32 51°14.826 2°54.614 2.3 349 7.6 103560 47
2012-03-26 06:54:37 51°14.84 2°54.597 2.4 348 7.6 103560 47
2012-03-26 06:54:42 51°14.854 2°54.581 2.5 350 7.6 103550 46
2012-03-26 06:54:47 51°14.869 2°54.565 2.5 348 7.6 103550 46
2012-03-26 06:54:52 51°14.883 2°54.549 2.4 348 7.6 103550 47
2012-03-26 06:54:57 51°14.898 2°54.534 2.5 351 7.6 103550 47
2012-03-26 06:55:03 51°14.915 2°54.514 2.3 350 7.7 103550 47
2012-03-26 06:55:07 51°14.926 2°54.501 2.5 351 7.7 103550 47
2012-03-26 06:55:12 51°14.941 2°54.485 2.5 352 7.6 103550 46
2012-03-26 06:55:17 51°14.955 2°54.468 2.5 350 7.6 103550 46
2012-03-26 06:55:23 51°14.971 2°54.448 2.3 352 7.7 103550 47
2012-03-26 06:55:27 51°14.982 2°54.434 2.4 352 7.7 103550 47
2012-03-26 06:55:32 51°14.996 2°54.418 2.6 353 7.6 103550 47
2012-03-26 06:55:37 51°15.011 2°54.402 2.7 351 7.6 103550 47
2012-03-26 06:55:42 51°15.025 2°54.386 2.6 353 7.6 103550 47
2012-03-26 06:55:47 51°15.038 2°54.368 2.7 354 7.6 103550 47
2012-03-26 06:55:52 51°15.052 2°54.351 3 354 7.7 103550 47
2012-03-26 06:55:57 51°15.066 2°54.334 2.8 354 7.7 103550 47
2012-03-26 06:56:02 51°15.08 2°54.317 2.7 354 7.7 103550 46
2012-03-26 06:56:07 51°15.094 2°54.301 2.9 354 7.7 103550 46
2012-03-26 06:56:12 51°15.108 2°54.284 2.6 352 7.7 103550 46
2012-03-26 06:56:17 51°15.122 2°54.269 2.9 352 7.7 103550 46
2012-03-26 06:56:22 51°15.137 2°54.253 3.1 353 7.7 103540 46
2012-03-26 06:56:27 51°15.152 2°54.238 2.8 352 7.7 103540 46
2012-03-26 06:56:32 51°15.166 2°54.222 3 352 7.7 103550 45
2012-03-26 06:56:37 51°15.18 2°54.205 2.8 352 7.7 103550 45
2012-03-26 06:56:42 51°15.194 2°54.189 3.3 351 7.7 103540 46
2012-03-26 06:56:47 51°15.209 2°54.173 3 351 7.7 103540 46
2012-03-26 06:56:52 51°15.223 2°54.157 3.2 352 7.8 103550 46
2012-03-26 06:56:57 51°15.237 2°54.141 2.9 352 7.8 103550 46
2012-03-26 06:57:02 51°15.251 2°54.125 3 350 7.7 103550 46
2012-03-26 06:57:07 51°15.266 2°54.108 3 350 7.7 103550 46
2012-03-26 06:57:12 51°15.28 2°54.092 1.9 349 7.8 103550 46
2012-03-26 06:57:17 51°15.294 2°54.075 2.8 281 7.8 103550 46
2012-03-26 06:57:22 51°15.309 2°54.06 2.7 348 7.8 103550 46
2012-03-26 06:57:27 51°15.323 2°54.043 2.8 347 7.8 103550 46
2012-03-26 06:57:32 51°15.337 2°54.026 7.2 348 7.8 103550 47
2012-03-26 06:57:37 51°15.351 2°54.01 7.1 283 7.8 103550 47
2012-03-26 06:57:42 51°15.365 2°53.994 7.3 346 7.9 103550 46
2012-03-26 06:57:47 51°15.38 2°53.978 6 284 7.9 103550 46
2012-03-26 06:57:52 51°15.395 2°53.963 6.9 347 7.9 103560 46
2012-03-26 06:57:57 51°15.41 2°53.948 6.4 285 7.9 103560 46
2012-03-26 06:58:03 51°15.427 2°53.929 7.1 345 7.9 103560 47
2012-03-26 06:58:07 51°15.439 2°53.917 2.9 282 7.9 103560 47
2012-03-26 06:58:12 51°15.454 2°53.902 3 345 7.9 103560 48
2012-03-26 06:58:17 51°15.468 2°53.887 1.8 281 7.9 103560 48
2012-03-26 06:58:22 51°15.483 2°53.871 0.5 346 7.9 103560 49
2012-03-26 06:58:27 51°15.497 2°53.856 0.1 348 7.9 103560 49
2012-03-26 06:58:32 51°15.512 2°53.84 0.1 348 7.9 103560 48
2012-03-26 06:58:37 51°15.526 2°53.823 5.9 283 7.9 103560 48
2012-03-26 06:58:42 51°15.541 2°53.807 6.3 348 7.9 103560 49
2012-03-26 06:58:47 51°15.555 2°53.791 6.5 282 7.9 103560 49
2012-03-26 06:58:52 51°15.57 2°53.775 6.6 349 7.9 103560 49
2012-03-26 06:58:57 51°15.585 2°53.76 7.1 280 7.9 103560 49
2012-03-26 06:59:02 51°15.599 2°53.744 6.4 350 7.9 103560 49
2012-03-26 06:59:07 51°15.614 2°53.728 6.7 350 7.9 103560 49
2012-03-26 06:59:12 51°15.628 2°53.711 6.6 349 7.9 103560 49
2012-03-26 06:59:17 51°15.643 2°53.696 7.5 349 7.9 103560 49
2012-03-26 06:59:23 51°15.66 2°53.677 7.7 349 7.9 103560 49
2012-03-26 06:59:27 51°15.672 2°53.665 6.4 349 7.9 103560 49
2012-03-26 06:59:32 51°15.687 2°53.649 6.5 347 7.8 103560 50
2012-03-26 06:59:37 51°15.701 2°53.632 5.9 350 7.8 103560 50
2012-03-26 06:59:42 51°15.716 2°53.616 6.6 348 7.8 103560 49
2012-03-26 06:59:47 51°15.73 2°53.599 7.7 347 7.8 103560 49
2012-03-26 06:59:52 51°15.744 2°53.582 6.4 346 7.8 103560 49
2012-03-26 06:59:57 51°15.759 2°53.565 6.7 346 7.8 103560 49
2012-03-26 07:00:02 51°15.773 2°53.548 6 347 7.8 103560 49
2012-03-26 07:00:07 51°15.787 2°53.532 7 345 7.8 103560 49
2012-03-26 07:00:12 51°15.802 2°53.516 6.1 349 7.8 103550 50
2012-03-26 07:00:17 51°15.817 2°53.501 6.1 349 7.8 103550 50
2012-03-26 07:00:22 51°15.832 2°53.487 5.9 348 7.8 103550 50
2012-03-26 07:00:27 51°15.847 2°53.472 6.5 280 7.8 103550 50
2012-03-26 07:00:32 51°15.863 2°53.457 6.5 349 7.9 103560 49
2012-03-26 07:00:37 51°15.878 2°53.444 7.2 348 7.9 103560 49
2012-03-26 07:00:42 51°15.894 2°53.43 2.7 350 7.8 103550 50
2012-03-26 07:00:47 51°15.909 2°53.417 2.8 350 7.8 103550 50
2012-03-26 07:00:52 51°15.925 2°53.403 2.6 348 7.8 103550 49
2012-03-26 07:00:57 51°15.94 2°53.389 2.7 348 7.8 103550 49
2012-03-26 07:01:02 51°15.955 2°53.375 6.8 349 7.8 103560 50
2012-03-26 07:01:07 51°15.97 2°53.361 7.6 279 7.8 103560 50
2012-03-26 07:01:12 51°15.986 2°53.347 7.3 346 7.8 103550 50
2012-03-26 07:01:17 51°16.001 2°53.334 7.2 348 7.8 103550 50
2012-03-26 07:01:22 51°16.017 2°53.319 7.6 347 7.8 103550 50
2012-03-26 07:01:27 51°16.032 2°53.305 7.1 346 7.8 103550 50
2012-03-26 07:01:32 51°16.047 2°53.291 7.6 346 7.8 103550 50
2012-03-26 07:01:37 51°16.062 2°53.277 7.5 279 7.8 103550 50
2012-03-26 07:01:42 51°16.077 2°53.262 7.5 346 7.8 103550 50
2012-03-26 07:01:47 51°16.093 2°53.248 6.9 280 7.8 103550 50
2012-03-26 07:01:52 51°16.108 2°53.234 6.7 346 7.8 103550 50
2012-03-26 07:01:57 51°16.123 2°53.219 7.5 281 7.8 103550 50
2012-03-26 07:02:03 51°16.142 2°53.201 6.2 347 7.8 103550 50
2012-03-26 07:02:07 51°16.153 2°53.189 6.7 347 7.8 103550 50
2012-03-26 07:02:12 51°16.169 2°53.175 6.9 347 7.8 103550 50
2012-03-26 07:02:17 51°16.184 2°53.16 8 348 7.8 103550 50
2012-03-26 07:02:22 51°16.199 2°53.145 6.3 348 7.8 103560 50
2012-03-26 07:02:27 51°16.214 2°53.129 7.5 349 7.8 103560 50
2012-03-26 07:02:32 51°16.229 2°53.114 2.1 348 7.8 103550 50
2012-03-26 07:02:37 51°16.244 2°53.098 6.7 349 7.8 103550 50
2012-03-26 07:02:42 51°16.258 2°53.082 5 348 7.8 103550 50
2012-03-26 07:02:47 51°16.273 2°53.066 6.9 350 7.8 103550 50
2012-03-26 07:02:52 51°16.288 2°53.049 7.1 350 7.8 103550 50
2012-03-26 07:02:57 51°16.303 2°53.033 5.6 349 7.8 103550 50
2012-03-26 07:03:02 51°16.317 2°53.017 6.5 350 7.8 103550 51
2012-03-26 07:03:07 51°16.332 2°53.002 6 281 7.8 103550 51
2012-03-26 07:03:12 51°16.347 2°52.986 6.3 349 7.8 103550 50
2012-03-26 07:03:17 51°16.362 2°52.971 5.9 282 7.8 103550 50
2012-03-26 07:03:22 51°16.377 2°52.956 6.7 348 7.8 103550 50
2012-03-26 07:03:27 51°16.393 2°52.942 6 347 7.8 103550 50
2012-03-26 07:03:32 51°16.408 2°52.928 7.5 347 7.8 103550 51
2012-03-26 07:03:37 51°16.424 2°52.915 6.2 348 7.8 103550 51
2012-03-26 07:03:42 51°16.439 2°52.901 7.6 349 7.8 103560 51
2012-03-26 07:03:47 51°16.455 2°52.889 7.2 347 7.8 103560 51
2012-03-26 07:03:52 51°16.471 2°52.876 8.8 348 7.8 103560 51
2012-03-26 07:03:57 51°16.487 2°52.864 7.4 281 7.8 103560 51
2012-03-26 07:04:02 51°16.503 2°52.851 7 348 7.7 103560 51
2012-03-26 07:04:07 51°16.519 2°52.839 8.7 349 7.7 103560 51
2012-03-26 07:04:12 51°16.535 2°52.827 7.3 348 7.7 103560 51
2012-03-26 07:04:17 51°16.551 2°52.816 9.8 280 7.7 103560 51
2012-03-26 07:04:22 51°16.567 2°52.803 8.8 350 7.7 103560 51
2012-03-26 07:04:27 51°16.582 2°52.79 8.9 349 7.7 103560 51
2012-03-26 07:04:32 51°16.597 2°52.776 7.9 350 7.7 103560 51
2012-03-26 07:04:37 51°16.612 2°52.762 7.6 350 7.7 103560 51
2012-03-26 07:04:42 51°16.628 2°52.747 7.6 349 7.7 103550 51
2012-03-26 07:04:47 51°16.643 2°52.734 8 280 7.7 103550 51
2012-03-26 07:04:52 51°16.659 2°52.72 8 349 7.7 103560 50
2012-03-26 07:04:57 51°16.674 2°52.708 7.7 349 7.7 103560 50
2012-03-26 07:05:02 51°16.69 2°52.697 7.5 348 7.7 103560 51
2012-03-26 07:05:07 51°16.707 2°52.687 7.8 279 7.7 103560 51
2012-03-26 07:05:12 51°16.723 2°52.677 7.6 346 7.7 103560 51
2012-03-26 07:05:17 51°16.739 2°52.669 8.5 345 7.7 103560 51
2012-03-26 07:05:22 51°16.756 2°52.662 7.9 344 7.7 103560 51
2012-03-26 07:05:27 51°16.772 2°52.657 9.8 283 7.7 103560 51
2012-03-26 07:05:32 51°16.789 2°52.652 7.4 345 7.7 103560 51
2012-03-26 07:05:37 51°16.805 2°52.647 7.7 280 7.7 103560 51
2012-03-26 07:05:42 51°16.822 2°52.642 8.3 344 7.7 103560 51
2012-03-26 07:05:47 51°16.839 2°52.638 8.6 281 7.7 103560 51
2012-03-26 07:05:52 51°16.856 2°52.635 9.1 343 7.7 103560 49
2012-03-26 07:05:57 51°16.872 2°52.633 8.5 278 7.7 103560 49
2012-03-26 07:06:02 51°16.889 2°52.632 9 344 7.7 103560 51
2012-03-26 07:06:07 51°16.906 2°52.63 8.1 281 7.7 103560 51
2012-03-26 07:06:12 51°16.923 2°52.629 8.3 344 7.7 103560 50
2012-03-26 07:06:17 51°16.94 2°52.629 8 287 7.7 103560 50
2012-03-26 07:06:22 51°16.956 2°52.628 10.2 343 7.7 103560 51
2012-03-26 07:06:27 51°16.974 2°52.628 11.7 285 7.7 103560 51
2012-03-26 07:06:32 51°16.991 2°52.627 9.4 342 7.7 103560 51
2012-03-26 07:06:37 51°17.007 2°52.626 8.6 282 7.7 103560 51
2012-03-26 07:06:42 51°17.024 2°52.626 7.8 343 7.7 103560 51
2012-03-26 07:06:47 51°17.041 2°52.624 9.5 283 7.7 103560 51
2012-03-26 07:06:52 51°17.057 2°52.623 8.5 344 7.7 103570 51
2012-03-26 07:06:57 51°17.074 2°52.622 8.6 282 7.7 103570 51
2012-03-26 07:07:03 51°17.094 2°52.62 8.8 344 7.7 103560 51
2012-03-26 07:07:07 51°17.108 2°52.619 9 280 7.7 103560 51
2012-03-26 07:07:12 51°17.124 2°52.617 8.6 344 7.7 103560 51
2012-03-26 07:07:17 51°17.141 2°52.616 8.7 282 7.7 103560 51
2012-03-26 07:07:22 51°17.158 2°52.615 9.7 342 7.7 103560 51
2012-03-26 07:07:27 51°17.174 2°52.616 10.9 282 7.7 103560 51
2012-03-26 07:07:32 51°17.191 2°52.616 8.1 341 7.7 103560 51
2012-03-26 07:07:37 51°17.208 2°52.617 8.5 280 7.7 103560 51
2012-03-26 07:07:42 51°17.224 2°52.618 11.1 342 7.7 103560 51
2012-03-26 07:07:47 51°17.241 2°52.619 8.4 281 7.7 103560 51
2012-03-26 07:07:52 51°17.258 2°52.62 8.3 342 7.7 103570 51
2012-03-26 07:07:57 51°17.274 2°52.62 10.3 285 7.7 103570 51
2012-03-26 07:08:02 51°17.291 2°52.62 9.9 342 7.7 103560 51
2012-03-26 07:08:07 51°17.307 2°52.62 10.1 284 7.7 103560 51
2012-03-26 07:08:12 51°17.324 2°52.62 10.5 343 7.8 103560 51
2012-03-26 07:08:17 51°17.341 2°52.619 8.6 281 7.8 103560 51
2012-03-26 07:08:22 51°17.357 2°52.618 10.4 343 7.8 103560 51
2012-03-26 07:08:27 51°17.374 2°52.617 10.8 286 7.8 103560 51
2012-03-26 07:08:32 51°17.391 2°52.615 10.8 343 7.8 103570 50
2012-03-26 07:08:37 51°17.407 2°52.614 10.8 285 7.8 103570 50
2012-03-26 07:08:42 51°17.424 2°52.613 8.1 344 7.8 103570 50
2012-03-26 07:08:47 51°17.44 2°52.612 11 286 7.8 103570 50
2012-03-26 07:08:52 51°17.457 2°52.611 10.3 344 7.8 103570 51
2012-03-26 07:08:57 51°17.474 2°52.61 10.2 284 7.8 103570 51
2012-03-26 07:09:02 51°17.49 2°52.609 8.8 345 7.8 103570 51
2012-03-26 07:09:07 51°17.507 2°52.608 10.1 283 7.8 103570 51
2012-03-26 07:09:12 51°17.523 2°52.607 10.9 342 7.7 103570 50
2012-03-26 07:09:17 51°17.54 2°52.607 8.3 279 7.7 103570 50
2012-03-26 07:09:23 51°17.559 2°52.606 8.7 343 7.8 103570 51
2012-03-26 07:09:27 51°17.573 2°52.606 11.3 288 7.8 103570 51
2012-03-26 07:09:32 51°17.589 2°52.608 10.1 342 7.7 103570 51
2012-03-26 07:09:37 51°17.606 2°52.611 11 285 7.7 103570 51
2012-03-26 07:09:42 51°17.622 2°52.614 10.9 341 7.8 103570 51
2012-03-26 07:09:47 51°17.638 2°52.617 8.7 282 7.8 103570 51
2012-03-26 07:09:52 51°17.654 2°52.622 10 341 7.8 103580 51
2012-03-26 07:09:57 51°17.67 2°52.626 12.2 284 7.8 103580 51
2012-03-26 07:10:02 51°17.686 2°52.632 10.8 340 7.8 103580 50
2012-03-26 07:10:07 51°17.701 2°52.638 10.7 284 7.8 103580 50
2012-03-26 07:10:12 51°17.717 2°52.644 11.6 339 7.8 103570 50
2012-03-26 07:10:17 51°17.732 2°52.651 8.8 280 7.8 103570 50
2012-03-26 07:10:22 51°17.748 2°52.658 10.9 339 7.8 103580 50
2012-03-26 07:10:27 51°17.763 2°52.664 11.8 285 7.8 103580 50
2012-03-26 07:10:32 51°17.779 2°52.67 11.3 340 7.8 103580 51
2012-03-26 07:10:37 51°17.795 2°52.676 8.9 284 7.8 103580 51
2012-03-26 07:10:42 51°17.811 2°52.681 8.9 341 7.8 103570 51
2012-03-26 07:10:47 51°17.826 2°52.686 8.4 284 7.8 103570 51
2012-03-26 07:10:52 51°17.843 2°52.691 11.5 341 7.8 103570 51
2012-03-26 07:10:57 51°17.859 2°52.695 10.9 280 7.8 103570 51
2012-03-26 07:11:02 51°17.875 2°52.7 10.5 341 7.8 103560 51
2012-03-26 07:11:07 51°17.891 2°52.704 11.2 287 7.8 103560 51
2012-03-26 07:11:12 51°17.907 2°52.707 10.4 341 7.8 103570 50
2012-03-26 07:11:17 51°17.923 2°52.711 8.9 280 7.8 103570 50
2012-03-26 07:11:22 51°17.939 2°52.714 10.3 342 7.8 103570 50
2012-03-26 07:11:27 51°17.955 2°52.717 8.3 281 7.8 103570 50
2012-03-26 07:11:32 51°17.972 2°52.72 10.5 342 7.9 103570 51
2012-03-26 07:11:37 51°17.988 2°52.722 12.2 280 7.9 103570 51
2012-03-26 07:11:43 51°18.007 2°52.727 8.6 341 7.9 103570 50
2012-03-26 07:11:47 51°18.021 2°52.73 9.7 285 7.9 103570 50
2012-03-26 07:11:52 51°18.036 2°52.734 10.9 340 7.9 103570 50
2012-03-26 07:11:57 51°18.052 2°52.74 8.7 282 7.9 103570 50
2012-03-26 07:12:02 51°18.067 2°52.747 10.7 337 7.9 103570 51
2012-03-26 07:12:07 51°18.083 2°52.756 9.2 284 7.9 103570 51
2012-03-26 07:12:12 51°18.097 2°52.767 10.6 336 7.9 103570 51
2012-03-26 07:12:17 51°18.111 2°52.778 11.7 285 7.9 103570 51
2012-03-26 07:12:22 51°18.125 2°52.791 11.5 335 7.9 103570 51
2012-03-26 07:12:27 51°18.138 2°52.806 11.7 280 7.9 103570 51
2012-03-26 07:12:32 51°18.15 2°52.821 11.1 334 7.9 103570 50
2012-03-26 07:12:37 51°18.162 2°52.837 8.8 279 7.9 103570 50
2012-03-26 07:12:42 51°18.173 2°52.854 11.5 333 7.9 103580 50
2012-03-26 07:12:47 51°18.183 2°52.872 12.8 284 7.9 103580 50
2012-03-26 07:12:52 51°18.194 2°52.89 9.5 332 7.9 103580 50
2012-03-26 07:12:57 51°18.204 2°52.91 9.2 284 7.9 103580 50
2012-03-26 07:13:02 51°18.214 2°52.929 9.6 331 7.9 103580 51
2012-03-26 07:13:07 51°18.224 2°52.949 10.8 278 7.9 103580 51
2012-03-26 07:13:12 51°18.234 2°52.968 9 332 7.9 103580 50
2012-03-26 07:13:17 51°18.243 2°52.987 10.9 287 7.9 103580 50
2012-03-26 07:13:22 51°18.253 2°53.006 10.8 332 7.9 103580 50
2012-03-26 07:13:27 51°18.263 2°53.025 9.2 278 7.9 103580 50
2012-03-26 07:13:32 51°18.273 2°53.044 11.5 332 7.9 103580 50
2012-03-26 07:13:37 51°18.283 2°53.063 12.8 283 7.9 103580 50
2012-03-26 07:13:42 51°18.293 2°53.082 9 332 7.9 103580 51
2012-03-26 07:13:47 51°18.303 2°53.101 9.2 281 7.9 103580 51
2012-03-26 07:13:52 51°18.313 2°53.12 11.2 332 7.9 103590 50
2012-03-26 07:13:57 51°18.324 2°53.139 9.7 282 7.9 103590 50
2012-03-26 07:14:02 51°18.334 2°53.158 9.2 332 7.9 103580 50
2012-03-26 07:14:07 51°18.344 2°53.178 9.7 282 7.9 103580 50
2012-03-26 07:14:12 51°18.354 2°53.197 10 331 7.9 103590 51
2012-03-26 07:14:17 51°18.363 2°53.216 12.1 288 7.9 103590 51
2012-03-26 07:14:22 51°18.373 2°53.235 11.3 330 7.9 103580 50
2012-03-26 07:14:27 51°18.382 2°53.255 11.3 287 7.9 103580 50
2012-03-26 07:14:32 51°18.391 2°53.275 12.6 331 7.9 103590 50
2012-03-26 07:14:37 51°18.4 2°53.295 8.8 282 7.9 103590 50
2012-03-26 07:14:43 51°18.411 2°53.32 11.3 331 7.9 103580 50
2012-03-26 07:14:47 51°18.418 2°53.337 10.5 282 7.9 103580 50
2012-03-26 07:14:52 51°18.426 2°53.358 9.4 330 7.9 103590 50
2012-03-26 07:14:57 51°18.435 2°53.379 11.9 284 7.9 103590 50
2012-03-26 07:15:02 51°18.443 2°53.4 10.8 330 7.9 103590 50
2012-03-26 07:15:07 51°18.451 2°53.421 13.3 282 7.9 103590 50
2012-03-26 07:15:12 51°18.459 2°53.441 9.3 330 7.9 103590 50
2012-03-26 07:15:17 51°18.469 2°53.462 8.9 280 7.9 103590 50
2012-03-26 07:15:22 51°18.477 2°53.481 9.1 331 7.9 103580 50
2012-03-26 07:15:27 51°18.487 2°53.502 11.7 280 7.9 103580 50
2012-03-26 07:15:32 51°18.497 2°53.521 12.3 331 7.9 103580 50
2012-03-26 07:15:37 51°18.506 2°53.54 11.4 283 7.9 103580 50
2012-03-26 07:15:43 51°18.518 2°53.564 11.3 331 7.9 103590 50
2012-03-26 07:15:47 51°18.526 2°53.579 11.5 283 7.9 103590 50
2012-03-26 07:15:52 51°18.536 2°53.599 11.3 331 7.9 103590 50
2012-03-26 07:15:57 51°18.545 2°53.619 9.8 281 7.9 103590 50
2012-03-26 07:16:02 51°18.554 2°53.64 11.8 330 7.9 103590 50
2012-03-26 07:16:07 51°18.563 2°53.661 9 281 7.9 103590 50
2012-03-26 07:16:12 51°18.57 2°53.682 9.6 329 7.9 103590 50
2012-03-26 07:16:17 51°18.578 2°53.703 8.8 286 7.9 103590 50
2012-03-26 07:16:22 51°18.586 2°53.725 8.9 330 7.9 103590 50
2012-03-26 07:16:27 51°18.594 2°53.747 9.9 278 7.9 103590 50
2012-03-26 07:16:32 51°18.602 2°53.769 10.8 329 7.9 103590 49
2012-03-26 07:16:37 51°18.61 2°53.79 11.1 288 7.9 103590 49
2012-03-26 07:16:42 51°18.617 2°53.813 12 330 7.9 103580 49
2012-03-26 07:16:47 51°18.624 2°53.834 11.8 287 7.9 103580 49
2012-03-26 07:16:52 51°18.632 2°53.856 8.9 330 7.9 103590 49
2012-03-26 07:16:57 51°18.64 2°53.878 10.9 282 7.9 103590 49
2012-03-26 07:17:02 51°18.648 2°53.899 10.9 331 7.9 103580 50
2012-03-26 07:17:07 51°18.656 2°53.921 11.1 283 7.9 103580 50
2012-03-26 07:17:12 51°18.664 2°53.941 11.6 332 7.9 103580 49
2012-03-26 07:17:17 51°18.673 2°53.962 11.7 285 7.9 103580 49
2012-03-26 07:17:22 51°18.683 2°53.982 12.3 332 7.9 103580 50
2012-03-26 07:17:27 51°18.692 2°54.002 8.9 280 7.9 103580 50
2012-03-26 07:17:32 51°18.702 2°54.021 10.3 332 7.9 103590 50
2012-03-26 07:17:37 51°18.711 2°54.041 11.9 285 7.9 103590 50
2012-03-26 07:17:42 51°18.72 2°54.061 11.2 331 8 103590 49
2012-03-26 07:17:47 51°18.729 2°54.082 12.1 288 8 103590 49
2012-03-26 07:17:52 51°18.738 2°54.102 9.1 331 8 103580 50
2012-03-26 07:17:57 51°18.746 2°54.123 9.2 283 8 103580 50
2012-03-26 07:18:02 51°18.755 2°54.144 8.6 330 8 103590 50
2012-03-26 07:18:07 51°18.763 2°54.165 9.5 284 8 103590 50
2012-03-26 07:18:12 51°18.77 2°54.186 12.6 329 7.9 103590 49
2012-03-26 07:18:17 51°18.778 2°54.209 9 -999 7.9 103590 49
2012-03-26 07:18:22 51°18.785 2°54.231 11.2 330 7.9 103590 50
2012-03-26 07:18:27 51°18.792 2°54.253 8.9 284 7.9 103590 50
2012-03-26 07:18:32 51°18.798 2°54.276 8.9 329 7.9 103590 49
2012-03-26 07:18:37 51°18.804 2°54.298 8.8 283 7.9 103590 49
2012-03-26 07:18:42 51°18.811 2°54.321 10.4 329 7.9 103590 50
2012-03-26 07:18:47 51°18.817 2°54.344 8.9 284 7.9 103590 50
2012-03-26 07:18:52 51°18.823 2°54.366 9.9 329 8 103590 50
2012-03-26 07:18:57 51°18.829 2°54.389 9.3 282 8 103590 50
2012-03-26 07:19:02 51°18.836 2°54.412 11.9 329 8 103590 50
2012-03-26 07:19:07 51°18.842 2°54.434 9.6 280 8 103590 50
2012-03-26 07:19:12 51°18.849 2°54.457 9 329 8 103590 49
2012-03-26 07:19:17 51°18.855 2°54.479 9 282 8 103590 49
2012-03-26 07:19:22 51°18.862 2°54.502 12.3 329 8 103590 49
2012-03-26 07:19:27 51°18.869 2°54.524 12.1 282 8 103590 49
2012-03-26 07:19:32 51°18.877 2°54.545 10.8 331 8 103590 50
2012-03-26 07:19:37 51°18.885 2°54.566 11.9 283 8 103590 50
2012-03-26 07:19:42 51°18.894 2°54.587 10.6 331 8 103590 50
2012-03-26 07:19:47 51°18.903 2°54.607 9.2 279 8 103590 50
2012-03-26 07:19:52 51°18.912 2°54.628 11.5 331 8 103590 49
2012-03-26 07:19:57 51°18.921 2°54.648 9.4 286 8 103590 49
2012-03-26 07:20:02 51°18.93 2°54.669 9 331 8 103590 50
2012-03-26 07:20:07 51°18.939 2°54.69 9.3 280 8 103590 50
2012-03-26 07:20:12 51°18.948 2°54.71 8.9 330 7.9 103590 50
2012-03-26 07:20:17 51°18.956 2°54.731 12.1 280 7.9 103590 50
2012-03-26 07:20:22 51°18.964 2°54.752 11.7 331 8 103590 49
2012-03-26 07:20:27 51°18.971 2°54.774 8.7 280 8 103590 49
2012-03-26 07:20:32 51°18.979 2°54.796 10.2 329 8 103580 50
2012-03-26 07:20:37 51°18.986 2°54.818 8.3 279 8 103580 50
2012-03-26 07:20:43 51°18.993 2°54.845 8.8 329 8 103590 49
2012-03-26 07:20:47 51°18.999 2°54.863 12.5 280 8 103590 49
2012-03-26 07:20:52 51°19.005 2°54.886 10 328 8 103590 49
2012-03-26 07:20:57 51°19.011 2°54.909 8.7 279 8 103590 49
2012-03-26 07:21:02 51°19.017 2°54.931 9 331 8 103580 50
2012-03-26 07:21:07 51°19.024 2°54.954 11.3 279 8 103580 50
2012-03-26 07:21:12 51°19.03 2°54.976 12 330 8 103590 49
2012-03-26 07:21:17 51°19.037 2°54.999 9 284 8 103590 49
2012-03-26 07:21:22 51°19.043 2°55.021 12 331 8 103590 49
2012-03-26 07:21:27 51°19.05 2°55.043 9.9 281 8 103590 49
2012-03-26 07:21:32 51°19.057 2°55.065 8.6 331 8 103590 49
2012-03-26 07:21:37 51°19.065 2°55.086 8.5 283 8 103590 49
2012-03-26 07:21:42 51°19.074 2°55.107 8.8 332 8 103590 49
2012-03-26 07:21:47 51°19.081 2°55.128 10 285 8 103590 49
2012-03-26 07:21:52 51°19.09 2°55.149 10.9 331 8 103580 48
2012-03-26 07:21:57 51°19.099 2°55.169 8.8 282 8 103580 48
2012-03-26 07:22:03 51°19.109 2°55.194 10.8 331 8 103590 50
2012-03-26 07:22:07 51°19.116 2°55.21 10.5 282 8 103590 50
2012-03-26 07:22:12 51°19.125 2°55.23 11.1 331 8 103590 50
2012-03-26 07:22:17 51°19.134 2°55.25 11.5 279 8 103590 50
2012-03-26 07:22:22 51°19.143 2°55.271 11.4 331 8 103590 50
2012-03-26 07:22:27 51°19.152 2°55.291 8.5 280 8 103590 50
2012-03-26 07:22:32 51°19.16 2°55.311 9.8 330 8 103590 49
2012-03-26 07:22:37 51°19.169 2°55.332 10.8 286 8 103590 49
2012-03-26 07:22:42 51°19.177 2°55.354 9.2 329 8 103590 49
2012-03-26 07:22:47 51°19.184 2°55.376 8.7 285 8 103590 49
2012-03-26 07:22:52 51°19.191 2°55.397 10.4 330 8 103590 50
2012-03-26 07:22:57 51°19.198 2°55.42 8.6 279 8 103590 50
2012-03-26 07:23:02 51°19.204 2°55.443 10.7 329 7.9 103590 49
2012-03-26 07:23:07 51°19.211 2°55.465 10.5 281 7.9 103590 49
2012-03-26 07:23:12 51°19.217 2°55.487 9.3 330 8 103600 50
2012-03-26 07:23:17 51°19.223 2°55.51 9 284 8 103600 50
2012-03-26 07:23:22 51°19.23 2°55.532 8.4 329 8 103590 50
2012-03-26 07:23:27 51°19.236 2°55.555 11.2 283 8 103590 50
2012-03-26 07:23:32 51°19.242 2°55.577 11.5 329 8 103600 49
2012-03-26 07:23:37 51°19.249 2°55.6 8.7 280 8 103600 49
2012-03-26 07:23:42 51°19.255 2°55.622 12 331 8 103600 49
2012-03-26 07:23:47 51°19.262 2°55.644 9 281 8 103600 49
2012-03-26 07:23:52 51°19.269 2°55.666 8.6 330 8 103590 50
2012-03-26 07:23:57 51°19.277 2°55.688 8.6 284 8 103590 50
2012-03-26 07:24:02 51°19.285 2°55.709 11.5 331 8 103590 49
2012-03-26 07:24:07 51°19.293 2°55.73 8.9 278 8 103590 49
2012-03-26 07:24:12 51°19.302 2°55.75 10.7 332 7.9 103600 50
2012-03-26 07:24:17 51°19.311 2°55.771 10.5 286 7.9 103600 50
2012-03-26 07:24:22 51°19.319 2°55.791 11.8 331 8 103590 50
2012-03-26 07:24:27 51°19.327 2°55.813 8.4 282 8 103590 50
2012-03-26 07:24:32 51°19.335 2°55.834 10.5 330 8 103590 48
2012-03-26 07:24:37 51°19.343 2°55.855 11.1 284 8 103590 48
2012-03-26 07:24:43 51°19.351 2°55.881 8.7 330 8 103590 50
2012-03-26 07:24:47 51°19.357 2°55.899 12.2 282 8 103590 50
2012-03-26 07:24:52 51°19.363 2°55.921 11 330 8 103600 50
2012-03-26 07:24:57 51°19.37 2°55.944 10.2 281 8 103600 50
2012-03-26 07:25:02 51°19.377 2°55.966 10.3 331 8 103600 50
2012-03-26 07:25:07 51°19.383 2°55.989 9.6 281 8 103600 50
2012-03-26 07:25:12 51°19.39 2°56.011 11.2 330 8 103600 50
2012-03-26 07:25:17 51°19.396 2°56.033 8.8 282 8 103600 50
2012-03-26 07:25:22 51°19.403 2°56.055 11.1 330 8 103600 49
2012-03-26 07:25:27 51°19.41 2°56.077 11.5 281 8 103600 49
2012-03-26 07:25:32 51°19.417 2°56.1 8.6 329 8 103600 50
2012-03-26 07:25:37 51°19.424 2°56.122 9.8 279 8 103600 50
2012-03-26 07:25:42 51°19.431 2°56.144 10.7 329 8 103600 50
2012-03-26 07:25:47 51°19.438 2°56.166 10.8 284 8 103600 50
2012-03-26 07:25:52 51°19.445 2°56.188 8.8 329 8 103600 49
2012-03-26 07:25:57 51°19.453 2°56.209 11 284 8 103600 49
2012-03-26 07:26:02 51°19.461 2°56.231 12 330 8 103600 50
2012-03-26 07:26:07 51°19.469 2°56.252 12 286 8 103600 50
2012-03-26 07:26:12 51°19.477 2°56.273 11.4 331 8 103600 50
2012-03-26 07:26:17 51°19.486 2°56.294 8.6 283 8 103600 50
2012-03-26 07:26:22 51°19.494 2°56.315 8.8 331 8 103600 50
2012-03-26 07:26:27 51°19.503 2°56.336 8.8 282 8 103600 50
2012-03-26 07:26:32 51°19.512 2°56.357 10.9 330 8 103600 49
2012-03-26 07:26:37 51°19.52 2°56.378 8.9 279 8 103600 49
2012-03-26 07:26:42 51°19.529 2°56.399 8.9 331 8 103600 50
2012-03-26 07:26:47 51°19.537 2°56.42 8.9 281 8 103600 50
2012-03-26 07:26:52 51°19.545 2°56.441 11.7 330 8 103600 49
2012-03-26 07:26:57 51°19.553 2°56.462 11.4 281 8 103600 49
2012-03-26 07:27:02 51°19.561 2°56.484 8.3 330 8 103600 50
2012-03-26 07:27:07 51°19.569 2°56.505 10.1 279 8 103600 50
2012-03-26 07:27:12 51°19.577 2°56.528 10.4 329 8 103600 49
2012-03-26 07:27:17 51°19.584 2°56.55 8.9 288 8 103600 49
2012-03-26 07:27:23 51°19.592 2°56.576 10.8 329 7.9 103600 50
2012-03-26 07:27:27 51°19.598 2°56.594 10.6 287 7.9 103600 50
2012-03-26 07:27:32 51°19.605 2°56.617 8.4 329 8 103600 50
2012-03-26 07:27:37 51°19.611 2°56.639 12 287 8 103600 50
2012-03-26 07:27:42 51°19.618 2°56.662 9.6 329 8 103600 50
2012-03-26 07:27:47 51°19.625 2°56.684 8.8 285 8 103600 50
2012-03-26 07:27:52 51°19.631 2°56.707 8.8 330 7.9 103600 50
2012-03-26 07:27:57 51°19.638 2°56.729 11.9 280 7.9 103600 50
2012-03-26 07:28:02 51°19.645 2°56.751 11.6 330 8 103610 50
2012-03-26 07:28:07 51°19.652 2°56.774 12.2 287 8 103610 50
2012-03-26 07:28:12 51°19.659 2°56.796 8.7 330 7.9 103610 50
2012-03-26 07:28:17 51°19.666 2°56.818 9.6 286 7.9 103610 50
2012-03-26 07:28:22 51°19.673 2°56.841 11.8 329 7.9 103610 50
2012-03-26 07:28:27 51°19.68 2°56.862 8.8 284 7.9 103610 50
2012-03-26 07:28:32 51°19.688 2°56.884 11.5 330 7.9 103610 50
2012-03-26 07:28:37 51°19.695 2°56.907 8.8 287 7.9 103610 50
2012-03-26 07:28:42 51°19.703 2°56.928 11.4 329 7.9 103600 50
2012-03-26 07:28:47 51°19.71 2°56.95 12.5 285 7.9 103600 50
2012-03-26 07:28:52 51°19.718 2°56.972 11.8 330 8 103610 49
2012-03-26 07:28:57 51°19.727 2°56.992 11.5 282 8 103610 49
2012-03-26 07:29:03 51°19.737 2°57.017 8.8 331 7.9 103610 49
2012-03-26 07:29:07 51°19.744 2°57.033 11.5 282 7.9 103610 49
2012-03-26 07:29:12 51°19.754 2°57.053 12.1 332 7.9 103600 49
2012-03-26 07:29:17 51°19.763 2°57.073 12 279 7.9 103600 49
2012-03-26 07:29:22 51°19.773 2°57.093 9.6 331 7.9 103610 50
2012-03-26 07:29:27 51°19.782 2°57.112 11.4 279 7.9 103610 50
2012-03-26 07:29:32 51°19.791 2°57.132 12.6 331 7.9 103600 50
2012-03-26 07:29:37 51°19.801 2°57.152 13 286 7.9 103600 50
2012-03-26 07:29:42 51°19.81 2°57.172 11.4 332 7.9 103610 50
2012-03-26 07:29:47 51°19.82 2°57.192 11.6 285 7.9 103610 50
2012-03-26 07:29:52 51°19.829 2°57.212 12.1 331 7.9 103610 49
2012-03-26 07:29:57 51°19.838 2°57.233 9.7 278 7.9 103610 49
2012-03-26 07:30:02 51°19.847 2°57.252 12.6 330 7.9 103610 50
2012-03-26 07:30:07 51°19.855 2°57.274 9.7 282 7.9 103610 50
2012-03-26 07:30:12 51°19.863 2°57.295 10.8 330 7.9 103600 50
2012-03-26 07:30:17 51°19.871 2°57.316 9.8 280 7.9 103600 50
2012-03-26 07:30:22 51°19.878 2°57.338 10.9 328 7.9 103610 49
2012-03-26 07:30:27 51°19.885 2°57.36 8.7 278 7.9 103610 49
2012-03-26 07:30:32 51°19.892 2°57.382 9.4 328 7.9 103610 49
2012-03-26 07:30:37 51°19.898 2°57.404 9.2 279 7.9 103610 49
2012-03-26 07:30:42 51°19.905 2°57.426 8.7 328 7.9 103610 50
2012-03-26 07:30:47 51°19.911 2°57.449 9.6 282 7.9 103610 50
2012-03-26 07:30:52 51°19.918 2°57.471 9 329 7.9 103600 50
2012-03-26 07:30:57 51°19.925 2°57.493 8.9 283 7.9 103600 50
2012-03-26 07:31:02 51°19.931 2°57.516 12.9 327 7.9 103610 50
2012-03-26 07:31:07 51°19.938 2°57.538 11.6 286 7.9 103610 50
2012-03-26 07:31:12 51°19.945 2°57.56 11.4 329 7.9 103610 50
2012-03-26 07:31:17 51°19.952 2°57.582 10.8 -999 7.9 103610 50
2012-03-26 07:31:22 51°19.959 2°57.604 11.1 329 7.9 103600 50
2012-03-26 07:31:27 51°19.966 2°57.626 12.5 286 7.9 103600 50
2012-03-26 07:31:32 51°19.974 2°57.648 9.9 329 8 103600 50
2012-03-26 07:31:37 51°19.981 2°57.67 9.4 278 8 103600 50
2012-03-26 07:31:42 51°19.988 2°57.692 11.3 328 7.9 103600 49
2012-03-26 07:31:47 51°19.995 2°57.714 10.9 284 7.9 103600 49
2012-03-26 07:31:52 51°20.002 2°57.736 9.1 330 8 103610 49
2012-03-26 07:31:57 51°20.009 2°57.758 8.6 285 8 103610 49
2012-03-26 07:32:02 51°20.017 2°57.78 8 328 8 103600 50
2012-03-26 07:32:07 51°20.024 2°57.802 10.9 286 8 103600 50
2012-03-26 07:32:12 51°20.031 2°57.825 11.6 329 8 103610 49
2012-03-26 07:32:17 51°20.038 2°57.846 10.7 -999 8 103610 49
2012-03-26 07:32:22 51°20.045 2°57.868 11.3 330 8 103600 50
2012-03-26 07:32:27 51°20.053 2°57.89 11.6 284 8 103600 50
2012-03-26 07:32:32 51°20.06 2°57.912 12 330 8 103600 49
2012-03-26 07:32:37 51°20.068 2°57.933 11 284 8 103600 49
2012-03-26 07:32:42 51°20.076 2°57.954 10.9 330 8 103610 49
2012-03-26 07:32:47 51°20.084 2°57.975 8.2 280 8 103610 49
2012-03-26 07:32:52 51°20.092 2°57.996 11.2 330 8 103610 50
2012-03-26 07:32:57 51°20.101 2°58.017 8.1 281 8 103610 50
2012-03-26 07:33:02 51°20.109 2°58.038 11.1 330 8 103610 50
2012-03-26 07:33:07 51°20.117 2°58.059 10.5 279 8 103610 50
2012-03-26 07:33:12 51°20.125 2°58.08 8.8 330 8 103610 49
2012-03-26 07:33:17 51°20.133 2°58.102 10.9 282 8 103610 49
2012-03-26 07:33:22 51°20.141 2°58.123 10.7 329 8 103610 50
2012-03-26 07:33:27 51°20.149 2°58.145 10.7 282 8 103610 50
2012-03-26 07:33:32 51°20.157 2°58.166 9.5 330 8 103610 50
2012-03-26 07:33:37 51°20.165 2°58.188 10.8 283 8 103610 50
2012-03-26 07:33:42 51°20.173 2°58.209 8.1 330 8 103610 50
2012-03-26 07:33:47 51°20.18 2°58.23 10.2 281 8 103610 50
2012-03-26 07:33:52 51°20.188 2°58.252 10.4 330 7.9 103610 50
2012-03-26 07:33:57 51°20.196 2°58.274 8.6 279 7.9 103610 50
2012-03-26 07:34:02 51°20.204 2°58.295 9.9 330 8 103610 50
2012-03-26 07:34:07 51°20.211 2°58.316 8.9 283 8 103610 50
2012-03-26 07:34:12 51°20.218 2°58.337 9 330 8 103610 50
2012-03-26 07:34:17 51°20.226 2°58.358 8 -999 8 103610 50
2012-03-26 07:34:22 51°20.234 2°58.38 10 329 7.9 103610 50
2012-03-26 07:34:27 51°20.241 2°58.402 8.3 283 7.9 103610 50
2012-03-26 07:34:32 51°20.249 2°58.424 11.2 330 7.9 103610 49
2012-03-26 07:34:37 51°20.256 2°58.445 11.3 286 7.9 103610 49
2012-03-26 07:34:42 51°20.264 2°58.467 8.8 331 7.9 103610 50
2012-03-26 07:34:47 51°20.272 2°58.488 11.2 282 7.9 103610 50
2012-03-26 07:34:52 51°20.279 2°58.51 7.8 329 7.9 103610 50
2012-03-26 07:34:57 51°20.286 2°58.532 8.6 281 7.9 103610 50
2012-03-26 07:35:02 51°20.293 2°58.554 10.5 328 8 103600 49
2012-03-26 07:35:07 51°20.299 2°58.576 8.2 284 8 103600 49
2012-03-26 07:35:12 51°20.306 2°58.598 11.7 329 7.9 103610 49
2012-03-26 07:35:17 51°20.313 2°58.62 8.8 282 7.9 103610 49
2012-03-26 07:35:22 51°20.319 2°58.643 9 328 8 103610 50
2012-03-26 07:35:27 51°20.325 2°58.665 11.1 285 8 103610 50
2012-03-26 07:35:32 51°20.331 2°58.687 11.8 327 7.9 103610 50
2012-03-26 07:35:37 51°20.336 2°58.71 10.3 281 7.9 103610 50
2012-03-26 07:35:42 51°20.342 2°58.733 8.6 328 7.9 103610 50
2012-03-26 07:35:47 51°20.347 2°58.756 8.4 283 7.9 103610 50
2012-03-26 07:35:52 51°20.352 2°58.78 8.5 326 7.9 103610 50
2012-03-26 07:35:57 51°20.357 2°58.803 8.4 286 7.9 103610 50
2012-03-26 07:36:02 51°20.361 2°58.826 11.1 327 7.9 103610 49
2012-03-26 07:36:07 51°20.366 2°58.849 8.5 287 7.9 103610 49
2012-03-26 07:36:12 51°20.371 2°58.872 8.1 326 7.9 103610 49
2012-03-26 07:36:17 51°20.376 2°58.895 11 -999 7.9 103610 49
2012-03-26 07:36:22 51°20.381 2°58.919 10.7 328 8 103610 50
2012-03-26 07:36:27 51°20.385 2°58.942 11 281 8 103610 50
2012-03-26 07:36:32 51°20.39 2°58.965 10.3 329 7.9 103610 50
2012-03-26 07:36:37 51°20.395 2°58.987 10.6 281 7.9 103610 50
2012-03-26 07:36:42 51°20.4 2°59.01 10.9 328 7.9 103610 49
2012-03-26 07:36:47 51°20.405 2°59.033 10.9 282 7.9 103610 49
2012-03-26 07:36:52 51°20.41 2°59.056 8.7 328 8 103610 50
2012-03-26 07:36:57 51°20.415 2°59.08 11.4 286 8 103610 50
2012-03-26 07:37:02 51°20.421 2°59.103 10.7 328 8 103610 50
2012-03-26 07:37:07 51°20.426 2°59.125 9.2 279 8 103610 50
2012-03-26 07:37:12 51°20.431 2°59.148 11.8 327 7.9 103620 49
2012-03-26 07:37:17 51°20.436 2°59.17 11.6 281 7.9 103620 49
2012-03-26 07:37:22 51°20.442 2°59.193 11.8 328 8 103610 49
2012-03-26 07:37:27 51°20.447 2°59.215 8.3 285 8 103610 49
2012-03-26 07:37:32 51°20.453 2°59.238 8.7 328 8 103610 49
2012-03-26 07:37:37 51°20.458 2°59.26 11.2 282 8 103610 49
2012-03-26 07:37:42 51°20.464 2°59.283 8.5 328 8 103610 49
2012-03-26 07:37:47 51°20.469 2°59.306 8.7 282 8 103610 49
2012-03-26 07:37:52 51°20.475 2°59.328 11.3 328 8 103610 49
2012-03-26 07:37:57 51°20.48 2°59.352 10.9 282 8 103610 49
2012-03-26 07:38:02 51°20.486 2°59.374 11.1 328 8 103610 49
2012-03-26 07:38:07 51°20.491 2°59.396 10.4 280 8 103610 49
2012-03-26 07:38:12 51°20.497 2°59.418 11.3 328 8 103610 50
2012-03-26 07:38:17 51°20.503 2°59.44 9.1 -999 8 103610 50
2012-03-26 07:38:22 51°20.51 2°59.462 9 329 8 103610 50
2012-03-26 07:38:27 51°20.516 2°59.484 8.5 282 8 103610 50
2012-03-26 07:38:32 51°20.523 2°59.505 8.9 328 8 103610 49
2012-03-26 07:38:37 51°20.529 2°59.528 8.6 280 8 103610 49
2012-03-26 07:38:42 51°20.536 2°59.549 8.2 328 8 103610 50
2012-03-26 07:38:47 51°20.543 2°59.57 10.2 284 8 103610 50
2012-03-26 07:38:52 51°20.55 2°59.591 11.1 328 8 103610 49
2012-03-26 07:38:57 51°20.557 2°59.612 11.8 282 8 103610 49
2012-03-26 07:39:02 51°20.565 2°59.634 10.4 330 8 103610 49
2012-03-26 07:39:07 51°20.572 2°59.654 8.2 281 8 103610 49
2012-03-26 07:39:12 51°20.579 2°59.675 10.5 329 8 103610 49
2012-03-26 07:39:17 51°20.587 2°59.696 10.7 283 8 103610 49
2012-03-26 07:39:22 51°20.594 2°59.717 10.6 328 8 103610 50
2012-03-26 07:39:27 51°20.601 2°59.738 10.8 284 8 103610 50
2012-03-26 07:39:32 51°20.608 2°59.76 10 329 8 103610 49
2012-03-26 07:39:37 51°20.614 2°59.782 8.4 281 8 103610 49
2012-03-26 07:39:42 51°20.62 2°59.803 8.1 329 8 103610 50
2012-03-26 07:39:47 51°20.626 2°59.826 10.3 282 8 103610 50
2012-03-26 07:39:52 51°20.632 2°59.848 8.2 329 8 103610 49
2012-03-26 07:39:58 51°20.639 2°59.874 8 280 8 103610 49
2012-03-26 07:40:02 51°20.644 2°59.892 8.3 329 8 103610 49
2012-03-26 07:40:07 51°20.651 2°59.914 11 286 8 103610 49
2012-03-26 07:40:12 51°20.658 2°59.935 11.1 329 7.9 103600 50
2012-03-26 07:40:17 51°20.663 2°59.957 10.3 -999 7.9 103600 50
2012-03-26 07:40:23 51°20.671 2°59.983 9.9 330 8 103610 49
2012-03-26 07:40:27 51°20.676 3°0 8.1 281 8 103610 49
2012-03-26 07:40:32 51°20.683 3°0.022 8.3 330 8 103620 48
2012-03-26 07:40:38 51°20.691 3°0.047 10.1 281 8 103620 48
2012-03-26 07:40:43 51°20.697 3°0.069 8.7 329 8 103610 49
2012-03-26 07:40:47 51°20.702 3°0.086 9.8 284 8 103610 49
2012-03-26 07:40:52 51°20.708 3°0.108 10.7 329 8 103610 50
2012-03-26 07:40:57 51°20.713 3°0.13 7.6 282 8 103610 50
2012-03-26 07:41:02 51°20.718 3°0.153 7.6 328 8 103620 49
2012-03-26 07:41:07 51°20.723 3°0.175 7.9 282 8 103620 49
2012-03-26 07:41:12 51°20.727 3°0.197 7.9 328 8 103610 50
2012-03-26 07:41:17 51°20.732 3°0.22 10.4 285 8 103610 50
2012-03-26 07:41:22 51°20.736 3°0.243 8.2 326 8 103610 49
2012-03-26 07:41:27 51°20.739 3°0.266 9.6 281 8 103610 49
2012-03-26 07:41:32 51°20.741 3°0.29 8.2 326 8 103610 50
2012-03-26 07:41:37 51°20.744 3°0.313 7.7 282 8 103610 50
2012-03-26 07:41:42 51°20.745 3°0.336 9.3 326 8 103610 50
2012-03-26 07:41:47 51°20.748 3°0.36 7.7 287 8 103610 50
2012-03-26 07:41:52 51°20.749 3°0.383 7.8 327 8 103610 49
2012-03-26 07:41:57 51°20.752 3°0.407 9.4 278 8 103610 49
2012-03-26 07:42:02 51°20.755 3°0.43 9.2 328 8 103610 49
2012-03-26 07:42:07 51°20.757 3°0.453 10.5 287 8 103610 49
2012-03-26 07:42:12 51°20.76 3°0.476 8.5 328 8 103620 50
2012-03-26 07:42:17 51°20.764 3°0.5 10.7 286 8 103620 50
2012-03-26 07:42:22 51°20.768 3°0.522 8.3 329 8 103620 49
2012-03-26 07:42:27 51°20.773 3°0.545 7.8 282 8 103620 49
2012-03-26 07:42:32 51°20.777 3°0.567 8.2 330 8 103610 50
2012-03-26 07:42:37 51°20.783 3°0.589 9.5 282 8 103610 50
2012-03-26 07:42:42 51°20.788 3°0.611 10.2 330 8 103620 49
2012-03-26 07:42:47 51°20.794 3°0.633 8 285 8 103620 49
2012-03-26 07:42:52 51°20.799 3°0.655 7.9 329 8 103620 50
2012-03-26 07:42:57 51°20.805 3°0.677 10.3 282 8 103620 50
2012-03-26 07:43:02 51°20.81 3°0.699 10.1 329 8 103620 49
2012-03-26 07:43:07 51°20.816 3°0.721 9.8 283 8 103620 49
2012-03-26 07:43:12 51°20.822 3°0.743 8.4 329 8 103610 49
2012-03-26 07:43:17 51°20.827 3°0.764 8.3 285 8 103610 49
2012-03-26 07:43:22 51°20.832 3°0.787 10.6 328 8 103620 49
2012-03-26 07:43:27 51°20.838 3°0.809 7.8 286 8 103620 49
2012-03-26 07:43:32 51°20.842 3°0.831 9 327 7.9 103620 49
2012-03-26 07:43:37 51°20.847 3°0.853 8.2 280 7.9 103620 49
2012-03-26 07:43:42 51°20.851 3°0.876 8.5 327 7.9 103620 50
2012-03-26 07:43:47 51°20.855 3°0.898 10.8 279 7.9 103620 50
2012-03-26 07:43:52 51°20.858 3°0.921 9.9 325 7.9 103620 49
2012-03-26 07:43:57 51°20.861 3°0.945 10.8 284 7.9 103620 49
2012-03-26 07:44:02 51°20.863 3°0.968 10.5 325 7.9 103620 50
2012-03-26 07:44:07 51°20.865 3°0.99 8.5 281 7.9 103620 50
2012-03-26 07:44:12 51°20.866 3°1.014 10.4 324 8 103620 49
2012-03-26 07:44:18 51°20.868 3°1.042 8.5 286 8 103620 49
2012-03-26 07:44:23 51°20.869 3°1.065 10.5 325 8 103620 50
2012-03-26 07:44:28 51°20.871 3°1.088 8.2 279 8 103620 50
2012-03-26 07:44:33 51°20.873 3°1.111 10 325 8 103610 50
2012-03-26 07:44:39 51°20.875 3°1.138 8.6 285 8 103610 50